Regional Weather Roundup
Issued by NWS

Home | Current Version | Previous Version | Graphics & Text | Print | Product List | Glossary On
Versions: 1 2 3 4 5 6 7 8 9 10 11 12 13 14 15 16 17 18 19 20 21 22 23 24 25 26 27 28 29 30 31 32 33 34 35 36 37 38 39 40 41 42 43 44 45 46 47 48 49 50
000
ASUS43 KDTX 251710
RWRMI
MICHIGAN HOURLY REGIONAL WEATHER ROUNDUP
NATIONAL WEATHER SERVICE DETROIT/PONTIAC MI
100 PM EDT FRI JUL 25 2014

NOTE: "FAIR" INDICATES FEW OR NO CLOUDS BELOW 12,000 FEET WITH NO
SIGNIFICANT WEATHER AND/OR OBSTRUCTION TO VISIBILITY.

MIZ047>049-052>055-059>063-066>070-074>076-081>083-251800-
SOUTHEAST LOWER MICHIGAN

CITY           SKY/WX    TMP DP  RH WIND       PRES   REMARKS
ADRIAN         PTSUNNY   73  52  47 W10       30.06F
ALMA           MOSUNNY   72  51  47 W6        30.02S
ANN ARBOR      PTSUNNY   75  51  43 SW9G22    30.04F
BAD AXE        MOSUNNY   74  52  47 W12G17    30.01F
DETROIT CITY   PTSUNNY   77  50  38 SW10      30.05F
DETROIT        PTSUNNY   76  52  43 SW15      30.05F
FLINT          MOSUNNY   75  52  44 SW8       30.01F
GROSSE ILE     PTSUNNY   73  57  56 S14       30.05F
HILLSDALE      MOSUNNY   74  54  49 SW6       30.06F
HOWELL         MOSUNNY   73  50  44 SW12      30.03F

CITY           SKY/WX    TMP DP  RH WIND       PRES   REMARKS
JACKSON        MOSUNNY   73  53  49 SW13      30.05F
LAMBERTVILLE   PTSUNNY   73  52  46 S9        30.07F
LANSING        MOSUNNY   73  51  46 W9        30.04F
LAPEER         NOT AVBL
MASON          MOSUNNY   73  53  49 SW8       30.03F
MONROE         PTSUNNY   75  52  43 W9        30.04F
MT. CLEMENS    PTSUNNY   75  52  43 W9        30.03F
PONTIAC        PTSUNNY   74  50  42 SW12      30.03F
PORT HOPE        N/A     74  52  46 W7        29.99F
PORT HURON     MOSUNNY   72  55  56 CALM      30.04F
TRI CITIES     MOSUNNY   73  52  47 SW7       30.01F
YPSILANTI      PTSUNNY   77  51  40 SW10      30.05F
$$
MIZ043>046-050>051-056>058-064>065-071>073-077>080-251800-
SOUTHWEST LOWER MICHIGAN

CITY           SKY/WX    TMP DP  RH WIND       PRES   REMARKS
BATTLE CREEK   PTSUNNY   73  52  47 W8        30.05F
BENTON HARBOR  CLOUDY    74  54  49 S9        30.02F
BIG RAPIDS     PTSUNNY   72  55  54 W9        30.00F
COLDWATER      PTSUNNY   73  53  49 SW12      30.05F
HOLLAND        PTSUNNY   75  52  44 SW13      30.02F
GRAND RAPIDS   PTSUNNY   75  54  47 SW9       30.02F
KALAMAZOO      PTSUNNY   74  50  42 W5        30.04F
MARSHALL       PTSUNNY   72  55  54 SW8       30.04F
MUSKEGON       CLOUDY    70  56  61 S14       30.00F
$$
MIZ016>042-251800-
NORTHERN LOWER MICHIGAN

CITY           SKY/WX    TMP DP  RH WIND       PRES   REMARKS
ALPENA         MOSUNNY   77  52  41 VRB6      29.95F
BEAVER ISLAND  MOSUNNY   71  57  62 SW9G16    29.93F
BELLAIRE       PTSUNNY   73  55  51 SW7       29.95S
CADILLAC       PTSUNNY   72  58  60 SW12      29.98S
CHARLEVOIX     MOSUNNY   74  57  55 SW13      29.97S
FRANKFORT      PTSUNNY   70  53  53 SW12G18   29.95F
GAYLORD        PTSUNNY   70  54  56 W7        29.96F
GRAYLING       PTSUNNY   74  54  49 SW6       29.98F HAZE
HARBOR SPRINGS SUNNY     74  56  54 W7        29.94S
HOUGHTON LAKE  PTSUNNY   71  54  54 SW7       29.99F
MANISTEE       CLOUDY    72  55  56 SW8       29.97F
OSCODA         SUNNY     77  48  36 SW9G16    29.96F
PELLSTON       SUNNY     74  57  55 W13G18    29.93F
TRAVERSE CITY  CLOUDY    76  54  46 W10G16    29.94S
$$
MIZ007>008-015-251800-
EASTERN UPPER MICHIGAN

CITY           SKY/WX    TMP DP  RH WIND       PRES   REMARKS
KINROSS        SUNNY     75  57  53 W10       29.91F
MACKINAC ISLAN SUNNY     68  55  62 W13G20    29.92F
NEWBERRY       SUNNY     75  57  53 SW9G23    29.90S
S. S. MARIE    MOSUNNY   77  55  46 SW7       29.89F
$$
MIZ004>006-011>014-085-251800-
CENTRAL UPPER MICHIGAN

CITY           SKY/WX    TMP DP  RH WIND       PRES   REMARKS
MANISTIQUE     CLOUDY    63  56  78 S10G16    29.90S
ESCANABA       PTSUNNY   70  57  64 S14       29.89S
MENOMINEE      CLOUDY    70  57  64 SW7       29.91R
SAWYER-GWINN   MOSUNNY   75  59  57 SW12      29.88F
$$
MIZ001>003-009>011-084-251800-
WESTERN UPPER MICHIGAN

CITY           SKY/WX    TMP DP  RH WIND       PRES   REMARKS
IRON MOUNTAIN  CLOUDY    72  57  59 S12       29.88F
HOUGHTON       MOSUNNY   74  60  61 S6        29.83F
COPPER HARBOR    N/A     69  58  67 NE3       29.83S
$$

ABBREVIATIONS USED IN REMARKS
   TC - TEMPERATURE IN CELSIUS
  WCI - WIND CHILL INDEX
   HX - HEAT INDEX
  VSB - VISIBILITY



USA.gov is the U.S. government's official web portal to all federal, state and local government web resources and services.